(229941) = 2005 SA73 = 1998 SV152

Discovered at Socorro on 1998-09-26 by LINEAR.

Orbit

Orbit type: Main Belt

Note: WebGL enabled browser required.

epoch2024-03-31.0
epoch JD2460400.5
perihelion date2022-11-15.58792
perihelion JD2459899.08792
argument of perihelion (°)352.76376
ascending node (°)344.70954
inclination (°)5.21025
eccentricity0.1794066
perihelion distance (AU)1.8832344
Tisserand w.r.t. Jupiter3.6
ΔV w.r.t. Earth (km/sec)8.6
semimajor axis (AU)2.2949667
mean anomaly (°)142.14581
mean daily motion (°/day)0.28349100
aphelion distance (AU)2.707
period (years)3.48
P-vector [x]0.92383836
P-vector [y]-0.34648951
P-vector [z]-0.16268896
Q-vector [x]0.38203296
Q-vector [y]0.80801691
Q-vector [z]0.44850808
absolute magnitude17.22
phase slope0.15
uncertainty0
referenceMPEC 2024-C107
observations used340
oppositions14
arc length (days)9278
first opposition used1998
last opposition used2024
residual rms (arc-secs)0.75
perturbers coarse indicatorM-v
perturbers precise indicator003Ek
first observation date used1998-09-15.0
last observation date used2024-02-09.0
computer nameMPCLINUX
JD of orbit computation2456760.734001
perihelion JD uncertainty (days)8.2761E-05
argument of perihelion uncertainty (°)6.2036E-05
ascending node uncertainty (°)5.9133E-05
inclination uncertainty (°)7.5697E-06
eccentricity uncertainty 9.1179E-08
perihelion distance uncertainty (AU)2.0821E-07
Minimum Orbit Intersection Distances (in AU)
for orbit epoch: 2460200.5, reference: E2024-CA7
Mercury1.48312
Venus1.15698
Earth0.87383
Mars0.50288
Jupiter2.65849
Saturn6.51823
Uranus15.742
Neptune27.6537

Observations

346 total observations over interval: 1998 09 15.39634 – 2024 02 09.311477
These data are available for download (format description).

Date (UT) J2000 RA J2000 Dec Magn Location Ref
1998 09 15.39634 01 03 19.02 +10 37 57.8 18.8 R 699 – Lowell Observatory-LONEOS MPS 58700
1998 09 15.42116 01 03 17.90 +10 37 57.9   699 – Lowell Observatory-LONEOS MPS 58700
1998 09 15.44598 01 03 16.71 +10 37 59.7   699 – Lowell Observatory-LONEOS MPS 58700
1998 09 26.21302 00 53 58.07 +10 35 33.2 18.9   704 – Lincoln Laboratory ETS, New Mexico MPS 2829
1998 09 26.22974 00 53 57.15 +10 35 32.4 18.9   704 – Lincoln Laboratory ETS, New Mexico MPS 2829
1998 09 26.24642 00 53 55.93 +10 35 32.6 19.1   704 – Lincoln Laboratory ETS, New Mexico MPS 2829
1998 09 26.26305 00 53 55.01 +10 35 31.3 19.0   704 – Lincoln Laboratory ETS, New Mexico MPS 2829
1998 09 26.27973 00 53 54.08 +10 35 30.0 19.0   704 – Lincoln Laboratory ETS, New Mexico MPS 2829
1998 09 27.30006 00 52 54.20 +10 34 13.1 18.9   704 – Lincoln Laboratory ETS, New Mexico MPS 2829
1998 09 27.31800 00 52 53.14 +10 34 11.7 19.5   704 – Lincoln Laboratory ETS, New Mexico MPS 2829
1998 09 27.33557 00 52 51.99 +10 34 10.1 19.4   704 – Lincoln Laboratory ETS, New Mexico MPS 2829
1998 09 27.35299 00 52 50.92 +10 34 09.4 20.1   704 – Lincoln Laboratory ETS, New Mexico MPS 2829
1998 10 11.26896 00 38 51.29 +10 03 29.0 18.5 R 699 – Lowell Observatory-LONEOS MPS 150580
1998 10 11.28882 00 38 50.13 +10 03 25.5   699 – Lowell Observatory-LONEOS MPS 150580
1998 10 11.30869 00 38 48.88 +10 03 21.5   699 – Lowell Observatory-LONEOS MPS 150580
2000 02 27.30516 09 53 33.51 +15 03 18.6 21.1 V 691 – Steward Observatory, Kitt Peak-Spacewatch MPS 150580
2000 02 27.32861 09 53 32.01 +15 03 23.0 20.9 V 691 – Steward Observatory, Kitt Peak-Spacewatch MPS 150580
2000 02 27.35043 09 53 30.67 +15 03 27.4 20.6 V 691 – Steward Observatory, Kitt Peak-Spacewatch MPS 150580
2005 08 30.31554 01 45 21.77 +14 06 41.7 20.2   704 – Lincoln Laboratory ETS, New Mexico MPS 150580
2005 08 30.32655 01 45 21.77 +14 06 45.3 19.9   704 – Lincoln Laboratory ETS, New Mexico MPS 150580
2005 08 30.33770 01 45 21.83 +14 06 49.0 20.1   704 – Lincoln Laboratory ETS, New Mexico MPS 150580
2005 08 30.34910 01 45 21.96 +14 06 52.3 20.0   704 – Lincoln Laboratory ETS, New Mexico MPS 150580
2005 08 30.37046 01 45 22.00 +14 07 00.5 19.8 R 699 – Lowell Observatory-LONEOS MPS 150580
2005 08 30.39321 01 45 22.14 +14 07 08.7   699 – Lowell Observatory-LONEOS MPS 150580
2005 08 30.41592 01 45 22.28 +14 07 15.4   699 – Lowell Observatory-LONEOS MPS 150580
2005 08 30.43870 01 45 22.40 +14 07 23.4   699 – Lowell Observatory-LONEOS MPS 150580
2005 09 23.34864 01 37 32.44 +15 28 28.2 19.3 R 644 – Palomar Mountain/NEAT MPS 143267
2005 09 23.37038 01 37 31.38 +15 28 29.5 19.5 R 644 – Palomar Mountain/NEAT MPS 143267
2005 09 23.38238 01 37 30.68 +15 28 29.7 19.2 V 703 – Catalina Sky Survey MPS 144197
2005 09 23.38991 01 37 30.32 +15 28 30.5 18.9 V 703 – Catalina Sky Survey MPS 144197
2005 09 23.39152 01 37 30.35 +15 28 30.3 19.8 R 644 – Palomar Mountain/NEAT MPS 143267
2005 09 23.39736 01 37 30.07 +15 28 30.9 18.9 V 703 – Catalina Sky Survey MPS 144197
2005 09 23.40491 01 37 29.71 +15 28 30.5 19.3 V 703 – Catalina Sky Survey MPS 144197
2005 09 25.30396 01 36 02.29 +15 29 56.3 19.4 V 691 – Steward Observatory, Kitt Peak-Spacewatch MPS 150580
2005 09 25.32137 01 36 01.45 +15 29 57.0 19.4 V 691 – Steward Observatory, Kitt Peak-Spacewatch MPS 150580
2005 09 25.33878 01 36 00.55 +15 29 57.5 19.6 V 691 – Steward Observatory, Kitt Peak-Spacewatch MPS 150580
2005 09 29.35899 01 32 35.43 +15 30 24.2 19.0 R 699 – Lowell Observatory-LONEOS MPS 150580
2005 09 29.38093 01 32 34.28 +15 30 24.1   699 – Lowell Observatory-LONEOS MPS 150580
2005 09 29.40288 01 32 32.94 +15 30 23.0   699 – Lowell Observatory-LONEOS MPS 150580
2005 09 29.42482 01 32 31.73 +15 30 23.9   699 – Lowell Observatory-LONEOS MPS 150580
2005 09 30.29807 01 31 44.41 +15 30 01.2 19.3 V 691 – Steward Observatory, Kitt Peak-Spacewatch MPS 144197
2005 09 30.31891 01 31 43.19 +15 30 00.5 19.3 V 691 – Steward Observatory, Kitt Peak-Spacewatch MPS 144197
2005 09 30.33628 01 31 42.11 +15 30 00.2 19.1 V 691 – Steward Observatory, Kitt Peak-Spacewatch MPS 144197
2005 10 01.33355 01 30 46.51 +15 29 23.1 18.9 V 703 – Catalina Sky Survey MPS 144197
2005 10 01.34276 01 30 45.86 +15 29 22.7 19.1 V 703 – Catalina Sky Survey MPS 144197
2005 10 01.35196 01 30 45.39 +15 29 21.4 18.9 V 703 – Catalina Sky Survey MPS 144197
2005 10 01.36113 01 30 44.78 +15 29 21.0 18.6 V 703 – Catalina Sky Survey MPS 144197
2005 10 03.27145 01 28 55.18 +15 27 38.1 18.9   704 – Lincoln Laboratory ETS, New Mexico MPS 144197
2005 10 03.28260 01 28 54.50 +15 27 36.9 19.2   704 – Lincoln Laboratory ETS, New Mexico MPS 144197
2005 10 03.29337 01 28 53.84 +15 27 36.3 19.3   704 – Lincoln Laboratory ETS, New Mexico MPS 144197
2005 10 03.30416 01 28 53.18 +15 27 35.3 19.1   704 – Lincoln Laboratory ETS, New Mexico MPS 144197
2005 10 06.28627 01 25 54.64 +15 23 27.8 19.0 R 699 – Lowell Observatory-LONEOS MPS 144197
2005 10 06.30820 01 25 53.27 +15 23 25.1   699 – Lowell Observatory-LONEOS MPS 144197
2005 10 06.33014 01 25 51.86 +15 23 22.1   699 – Lowell Observatory-LONEOS MPS 144197
2005 10 06.35209 01 25 50.47 +15 23 21.1   699 – Lowell Observatory-LONEOS MPS 144197
2005 10 08.25574 01 23 53.30 +15 19 52.5 19.4   704 – Lincoln Laboratory ETS, New Mexico MPS 143267
2005 10 08.27761 01 23 52.09 +15 19 49.9 20.3   704 – Lincoln Laboratory ETS, New Mexico MPS 143267
2005 10 08.28844 01 23 51.26 +15 19 47.8 20.0   704 – Lincoln Laboratory ETS, New Mexico MPS 143267
2005 10 08.29930 01 23 50.53 +15 19 46.6 20.1   704 – Lincoln Laboratory ETS, New Mexico MPS 143267
2005 10 12.25551 01 19 42.53 +15 10 41.8 18.5   704 – Lincoln Laboratory ETS, New Mexico MPS 143267
2005 10 12.26715 01 19 41.80 +15 10 39.2 19.0   704 – Lincoln Laboratory ETS, New Mexico MPS 143267
2005 10 12.27805 01 19 41.05 +15 10 38.0 18.9   704 – Lincoln Laboratory ETS, New Mexico MPS 143267
2005 10 12.28894 01 19 40.30 +15 10 36.2 18.9   704 – Lincoln Laboratory ETS, New Mexico MPS 143267
2005 10 12.29986 01 19 39.59 +15 10 33.9 19.2   704 – Lincoln Laboratory ETS, New Mexico MPS 143267
2005 10 22.25151 01 09 29.44 +14 39 30.6 18.9 V 703 – Catalina Sky Survey MPS 145766
2005 10 22.26003 01 09 28.90 +14 39 28.8 18.5 V 703 – Catalina Sky Survey MPS 145766
2005 10 22.26855 01 09 28.44 +14 39 27.0 18.5 V 703 – Catalina Sky Survey MPS 145766
2005 10 22.27366 01 09 28.18 +14 39 26.5 18.6 R 644 – Palomar Mountain/NEAT MPS 145766
2005 10 22.27705 01 09 27.97 +14 39 24.9 18.5 V 703 – Catalina Sky Survey MPS 145766
2005 10 22.29530 01 09 26.85 +14 39 21.8 18.7 R 644 – Palomar Mountain/NEAT MPS 145766
2005 10 22.32019 01 09 25.32 +14 39 16.1 18.3 R 644 – Palomar Mountain/NEAT MPS 145766
2005 10 24.13994 01 07 42.12 +14 32 47.5 18.6 R 699 – Lowell Observatory-LONEOS MPS 145766
2005 10 24.16185 01 07 40.86 +14 32 43.4   699 – Lowell Observatory-LONEOS MPS 145766
2005 10 24.18372 01 07 39.59 +14 32 39.9   699 – Lowell Observatory-LONEOS MPS 145766
2005 10 24.20565 01 07 38.24 +14 32 34.6   699 – Lowell Observatory-LONEOS MPS 145766
2005 11 02.20123 01 00 11.89 +14 00 21.1 19.1   704 – Lincoln Laboratory ETS, New Mexico MPS 147156
2005 11 02.21634 01 00 11.22 +14 00 18.7 19.6   704 – Lincoln Laboratory ETS, New Mexico MPS 147156
2005 11 02.22835 01 00 10.62 +14 00 15.9 19.5   704 – Lincoln Laboratory ETS, New Mexico MPS 147156
2005 11 02.24031 01 00 10.13 +14 00 13.3 19.5   704 – Lincoln Laboratory ETS, New Mexico MPS 147156
2005 11 02.25243 01 00 09.59 +14 00 11.0 19.5   704 – Lincoln Laboratory ETS, New Mexico MPS 147156
2007 02 23.17731 10 15 59.95 +12 41 23.2 21.2 V 691 – Steward Observatory, Kitt Peak-Spacewatch MPS 201402
2007 02 23.19841 10 15 58.60 +12 41 28.8 20.9 V 691 – Steward Observatory, Kitt Peak-Spacewatch MPS 201402
2007 02 23.21950 10 15 57.23 +12 41 34.0 21.0 V 691 – Steward Observatory, Kitt Peak-Spacewatch MPS 201402
2007 02 27.16487 10 11 48.90 +12 57 13.2   691 – Steward Observatory, Kitt Peak-Spacewatch MPS 201402
2007 02 27.18252 10 11 47.75 +12 57 17.6   691 – Steward Observatory, Kitt Peak-Spacewatch MPS 201402
2007 02 27.20018 10 11 46.64 +12 57 22.1   691 – Steward Observatory, Kitt Peak-Spacewatch MPS 201402
